Location: Ohmer (historical)
(38.0096°N, 122.0227°W)
Time: 01:46:13
(UTC+00:00)

COSMOS 2455 - Pass Details

Date: 14 February 2026
Orbit: 899 x 909 km, 67.1° (Epoch: 10 March)

Event Time Altitude Azimuth Distance (km) Brightness Sun altitude
Exits shadow 14:10:45 13° 282° (WNW) 2,403 4.4 -10.1°
Maximum altitude 14:13:43 17° 315° (NW) 2,109 4.3 -9.6°
Drops below altitude 10° 14:17:37 10° 356° (N) 2,598 5.1 -8.8°
Sets 14:21:05 0° 15° (NNE) 3,544 6.0 -8.1°
